Weather History for Asheboro, NC

Change the Weather History Date:

Tuesday, April 9, 2013

  Actual Average Record
Temperature  
Mean Temperature 70 °F -  
Max Temperature 82 °F 69 °F 89 °F (2001)
Min Temperature 58 °F 45 °F 24 °F (1972)
Cooling Degree Days 5    
Growing Degree Days 20 (Base 50)    
Moisture  
Dew Point 54 °F    
Average Humidity 57    
Maximum Humidity 85    
Minimum Humidity 32    
Precipitation  
Precipitation 0.00 in - - ()
Sea Level Pressure  
Sea Level Pressure 30.16 in    
Wind  
Wind Speed 7 mph (SSW)    
Max Wind Speed 15 mph    
Max Gust Speed 21 mph    
Visibility 10 miles    
Events      
Averages and records for this station are not official NWS values.
T = Trace of Precipitation, MM = Missing Value Source: NWS Daily Summary

Daily Weather History Graph

Daily Weather History Graph

Search for Another Location

Airport:

Trip Planner

Search our weather history database for the weather conditions in past years. The results will help you decide how hot, cold, wet, or windy it might be!

Date:

Astronomy

Apr. 09, 2013 Rise Set
Actual Time 6:54 AM EDT 7:48 PM EDT
Civil Twilight 6:28 AM EDT 8:14 PM EDT
Nautical Twilight 5:57 AM EDT 8:44 PM EDT
Astronomical Twilight 5:26 AM EDT 9:16 PM EDT
Moon 6:15 AM EDT (4/9) 7:21 PM EDT (4/9)
Length of Visible Light 13h 45m
Length of Day
12h 53m
Waning Crescent, 1% of the Moon is Illuminated
Apr 9
Waning Crescent
Apr 10
New
Apr 18
First Quarter
Apr 25
Full
May 2
Last Quarter

Hourly Weather History & Observations

Time (EDT) Temp. Heat Index Dew Point Humidity Pressure Visibility Wind Dir Wind Speed Gust Speed Precip Events Conditions
12:15 AM 68.2 °F - 51.6 °F 55% 30.12 in 10.0 mi South 9.2 mph 17.3 mph N/A   Clear
12:35 AM 67.6 °F - 53.1 °F 59% 30.13 in 10.0 mi South 10.4 mph - N/A   Clear
1:15 AM 66.0 °F - 54.0 °F 65% 30.14 in 10.0 mi SSW 10.4 mph 19.6 mph N/A   Clear
1:55 AM 64.8 °F - 54.7 °F 70% 30.14 in 10.0 mi SSW 9.2 mph - N/A   Clear
2:15 AM 64.4 °F - 54.7 °F 71% 30.14 in 10.0 mi SSW 12.7 mph - N/A   Clear
2:35 AM 63.7 °F - 54.9 °F 73% 30.14 in 10.0 mi SSW 8.1 mph - N/A   Clear
2:55 AM 63.0 °F - 54.9 °F 75% 30.14 in 10.0 mi South 6.9 mph - N/A   Clear
3:15 AM 62.6 °F - 54.7 °F 75% 30.14 in 10.0 mi SSW 5.8 mph - N/A   Clear
3:35 AM 61.9 °F - 54.7 °F 77% 30.14 in 10.0 mi SSW 5.8 mph - N/A   Clear
3:55 AM 61.7 °F - 54.5 °F 77% 30.15 in 10.0 mi South 4.6 mph - N/A   Clear
4:15 AM 61.0 °F - 54.3 °F 79% 30.15 in 10.0 mi South 4.6 mph - N/A   Clear
4:35 AM 60.8 °F - 54.1 °F 79% 30.15 in 10.0 mi SSW 4.6 mph - N/A   Clear
4:55 AM 60.8 °F - 54.0 °F 78% 30.16 in 10.0 mi South 3.5 mph - N/A   Clear
5:15 AM 60.1 °F - 53.8 °F 80% 30.16 in 10.0 mi South 3.5 mph - N/A   Clear
5:35 AM 59.4 °F - 53.8 °F 82% 30.17 in 10.0 mi Calm Calm - N/A   Clear
5:55 AM 58.1 °F - 53.6 °F 85% 30.17 in 10.0 mi Calm Calm - N/A   Clear
6:15 AM 58.1 °F - 53.6 °F 85% 30.18 in 10.0 mi Calm Calm - N/A   Clear
6:35 AM 58.1 °F - 53.6 °F 85% 30.18 in 10.0 mi Calm Calm - N/A   Clear
6:55 AM 58.3 °F - 53.6 °F 84% 30.19 in 10.0 mi South 4.6 mph - N/A   Clear
7:15 AM 59.0 °F - 53.8 °F 83% 30.20 in 10.0 mi South 4.6 mph - N/A   Clear
7:35 AM 59.2 °F - 54.1 °F 83% 30.20 in 10.0 mi South 4.6 mph - N/A   Clear
7:55 AM 60.1 °F - 54.7 °F 82% 30.21 in 10.0 mi SSW 4.6 mph - N/A   Clear
8:15 AM 61.5 °F - 54.9 °F 79% 30.21 in 10.0 mi SSW 5.8 mph - N/A   Clear
8:35 AM 61.9 °F - 54.9 °F 78% 30.22 in 10.0 mi SW 8.1 mph - N/A   Clear
8:55 AM 62.6 °F - 54.9 °F 76% 30.23 in 10.0 mi SW 8.1 mph - N/A   Clear
9:35 AM 64.4 °F - 55.2 °F 72% 30.23 in 10.0 mi SW 5.8 mph - N/A   Clear
9:55 AM 66.2 °F - 55.8 °F 69% 30.23 in 10.0 mi SSW 4.6 mph - N/A   Clear
10:15 AM 67.6 °F - 55.9 °F 66% 30.23 in 10.0 mi WSW 5.8 mph - N/A   Clear
10:35 AM 69.1 °F - 55.8 °F 62% 30.23 in 10.0 mi West 3.5 mph - N/A   Clear
10:55 AM 70.9 °F - 55.6 °F 58% 30.23 in 10.0 mi SSW 3.5 mph - N/A   Clear
11:15 AM 72.9 °F - 55.8 °F 55% 30.23 in 10.0 mi SSW 4.6 mph - N/A   Clear
11:35 AM 73.6 °F - 55.2 °F 53% 30.22 in 10.0 mi South 5.8 mph - N/A   Clear
11:55 AM 74.8 °F - 54.7 °F 49% 30.22 in 10.0 mi SSW 6.9 mph - N/A   Clear
12:15 PM 75.9 °F - 54.5 °F 47% 30.21 in 10.0 mi SSW 6.9 mph - N/A   Clear
12:55 PM 77.9 °F - 53.4 °F 43% 30.19 in 10.0 mi SSW 6.9 mph - N/A   Clear
1:15 PM 78.3 °F - 51.6 °F 39% 30.18 in 10.0 mi SSE 5.8 mph - N/A   Clear
1:35 PM 79.9 °F - 50.5 °F 36% 30.18 in 10.0 mi SSW 6.9 mph - N/A   Scattered Clouds
1:55 PM 79.2 °F - 50.4 °F 36% 30.17 in 10.0 mi SW 4.6 mph - N/A   Scattered Clouds
2:15 PM 80.4 °F - 50.2 °F 35% 30.16 in 10.0 mi SW 11.5 mph 16.1 mph N/A   Scattered Clouds
2:35 PM 81.0 °F - 50.5 °F 35% 30.16 in 10.0 mi South 8.1 mph 16.1 mph N/A   Scattered Clouds
2:55 PM 81.3 °F - 50.2 °F 34% 30.15 in 10.0 mi SW 5.8 mph - N/A   Scattered Clouds
3:15 PM 81.3 °F - 50.0 °F 33% 30.14 in 10.0 mi SW 10.4 mph - N/A   Clear
3:35 PM 81.9 °F - 50.5 °F 34% 30.13 in 10.0 mi SSW 10.4 mph - N/A   Clear
3:55 PM 81.9 °F - 50.2 °F 33% 30.12 in 10.0 mi WSW 5.8 mph - N/A   Clear
4:15 PM 82.2 °F - 51.4 °F 34% 30.12 in 10.0 mi SW 13.8 mph 17.3 mph N/A   Scattered Clouds
4:35 PM 82.9 °F - 50.0 °F 32% 30.12 in 10.0 mi SSW 11.5 mph - N/A   Scattered Clouds
4:55 PM 82.2 °F - 52.0 °F 35% 30.12 in 10.0 mi South 8.1 mph - N/A   Scattered Clouds
5:15 PM 82.4 °F - 51.4 °F 34% 30.12 in 10.0 mi SW 15.0 mph 20.7 mph N/A   Scattered Clouds
5:35 PM 81.7 °F - 52.2 °F 36% 30.12 in 10.0 mi SSW 11.5 mph - N/A   Clear
5:55 PM 81.3 °F - 52.5 °F 37% 30.12 in 10.0 mi SSW 8.1 mph 16.1 mph N/A   Clear
6:15 PM 81.5 °F - 52.7 °F 37% 30.12 in 10.0 mi SW 12.7 mph 19.6 mph N/A   Clear
6:35 PM 81.0 °F 80.4 °F 53.1 °F 38% 30.12 in 10.0 mi SSW 10.4 mph - N/A   Clear
6:55 PM 80.6 °F 80.3 °F 53.4 °F 39% 30.12 in 10.0 mi SSW 10.4 mph - N/A   Clear
7:15 PM 79.7 °F - 53.8 °F 41% 30.12 in 10.0 mi SSW 6.9 mph - N/A   Clear
7:35 PM 79.0 °F - 53.8 °F 42% 30.12 in 10.0 mi SSW 5.8 mph - N/A   Clear
7:55 PM 78.1 °F - 54.1 °F 43% 30.12 in 10.0 mi South 8.1 mph - N/A   Clear
8:15 PM 77.2 °F - 54.0 °F 44% 30.12 in 10.0 mi South 6.9 mph - N/A   Clear
8:35 PM 76.6 °F - 54.0 °F 45% 30.12 in 10.0 mi South 3.5 mph - N/A   Clear
8:55 PM 76.3 °F - 53.8 °F 45% 30.13 in 10.0 mi South 6.9 mph - N/A   Clear
9:15 PM 75.2 °F - 54.3 °F 48% 30.13 in 10.0 mi South 8.1 mph - N/A   Clear
9:35 PM 74.7 °F - 54.5 °F 49% 30.14 in 10.0 mi SSW 5.8 mph - N/A   Clear
9:55 PM 74.3 °F - 54.1 °F 49% 30.14 in 10.0 mi SSW 8.1 mph - N/A   Clear
10:35 PM 73.4 °F - 54.1 °F 51% 30.14 in 10.0 mi South 5.8 mph - N/A   Clear
10:55 PM 72.9 °F - 53.8 °F 51% 30.13 in 10.0 mi SSW 4.6 mph - N/A   Clear
11:15 PM 72.7 °F - 54.1 °F 52% 30.12 in 10.0 mi SSW 8.1 mph - N/A   Clear
11:35 PM 72.5 °F - 54.5 °F 53% 30.12 in 10.0 mi SSW 5.8 mph - N/A   Clear
11:55 PM 71.6 °F - 54.1 °F 54% 30.12 in 10.0 mi SSW 4.6 mph - N/A   Clear